FW8055 Weather Reports


time (UTC)temp
F
wind
direction
speed
knots
gust
knots
rain 1hr
in
rain 24hr
in
rain mn
in
humidity
%
barometer
mb
20260901054554 60 0 0.0 1.7 0.00 0.00 0.00 76 1012.7
20260901053059 61 29 0.0 3.5 0.00 0.00 0.00 75 1012.5
20260901051604 61 0 0.0 2.6 0.00 0.00 0.00 74 1012.4
20260901050056 62 0 0.0 3.5 0.00 0.00 0.00 73 1012.3
20260901044551 63 22 0.0 4.3 0.00 0.00 0.00 70 1012.0
20260901043053 64 0 0.0 3.5 0.00 0.00 0.00 68 1011.8
20260901041554 65 9 0.9 3.5 0.00 0.00 0.00 65 1011.3
20260901040059 66 334 0.0 2.6 0.00 0.00 0.00 63 1011.1
20260901034555 67 0 0.0 3.5 0.00 0.00 0.00 61 1010.9
20260901033052 68 30 1.7 6.1 0.00 0.00 0.00 59 1010.5
20260901031547 69 248 0.9 4.3 0.00 0.00 0.00 58 1010.2
20260901030055 70 0 0.9 6.1 0.00 0.00 0.00 59 1009.8
20260901024554 71 40 0.9 4.3 0.00 0.00 0.00 57 1009.7
20260901023054 72 26 0.9 5.2 0.00 0.00 0.00 55 1009.3
20260901021555 73 66 1.7 8.7 0.00 0.00 0.00 53 1009.1
20260901020057 75 62 0.9 6.1 0.00 0.00 0.00 51 1009.0
20260901014555 76 22 0.9 4.3 0.00 0.00 0.00 50 1008.8
20260901013123 78 0 0.0 4.3 0.00 0.00 0.00 48 1008.6
20260901011554 79 56 0.9 3.5 0.00 0.00 0.00 47 1008.5
20260901010114 80 52 1.7 7.0 0.00 0.00 0.00 45 1008.6
20260901004600 81 53 0.9 7.8 0.00 0.00 0.00 44 1008.4
20260901003103 83 15 0.0 5.2 0.00 0.00 0.00 41 1008.2
20260901001604 83 27 0.9 7.0 0.00 0.00 0.00 40 1008.1
20260831234608 83 360 1.7 6.1 0.00 0.00 0.00 39 1008.1
20260831233057 82 336 0.9 4.3 0.00 0.00 0.00 39 1008.1
20260831231550 82 44 0.9 7.0 0.00 0.00 0.00 40 1008.2
20260831230058 82 5 1.7 5.2 0.00 0.00 0.00 38 1008.4
20260831224555 81 273 0.9 7.0 0.00 0.00 0.00 40 1008.7
20260831223102 80 254 1.7 4.3 0.00 0.00 0.00 41 1008.8
20260831221555 80 19 1.7 4.3 0.00 0.00 0.00 42 1008.9
20260831220056 80 329 0.9 7.0 0.00 0.00 0.00 42 1009.1
20260831214559 80 52 0.9 6.1 0.00 0.00 0.00 43 1009.3
20260831213101 80 30 0.9 4.3 0.00 0.00 0.00 43 1009.4
20260831211556 78 16 1.7 5.2 0.00 0.00 0.00 46 1009.4
20260831210051 77 360 0.9 5.2 0.00 0.00 0.00 47 1009.6
20260831204606 76 342 2.6 5.2 0.00 0.00 0.00 49 1009.7
20260831203101 75 11 1.7 6.1 0.00 0.00 0.00 50 1009.9
20260831201608 74 329 1.7 7.0 0.00 0.00 0.00 51 1010.0
20260831200056 74 74 0.9 4.3 0.00 0.00 0.00 51 1010.2
20260831194558 73 15 1.7 9.6 0.00 0.00 0.00 54 1010.4
20260831193123 72 68 2.6 7.0 0.00 0.00 0.00 54 1010.6
20260831191601 71 20 3.5 7.8 0.00 0.00 0.00 56 1010.9
20260831190100 71 5 2.6 6.1 0.00 0.00 0.00 56 1011.1
20260831184555 70 32 1.7 7.8 0.00 0.00 0.00 57 1011.3
20260831183106 70 44 1.7 8.7 0.00 0.00 0.00 58 1011.3
20260831181613 69 11 0.9 4.3 0.00 0.00 0.00 58 1011.3
20260831174554 67 36 0.0 3.5 0.00 0.00 0.00 62 1011.4
20260831173049 65 0 0.9 4.3 0.00 0.00 0.00 65 1011.5
20260831171557 64 68 0.9 4.3 0.00 0.00 0.00 67 1011.6
20260831170056 62 0 0.9 2.6 0.00 0.00 0.00 69 1011.7
20260831164608 61 44 0.9 3.5 0.00 0.00 0.00 73 1011.7
20260831163059 60 309 0.0 2.6 0.00 0.00 0.00 74 1011.9
20260831161604 59 33 0.9 2.6 0.00 0.00 0.00 76 1012.1
20260831160110 57 345 0.0 1.7 0.00 0.00 0.00 80 1012.2
20260831154624 56 0 0.0 0.9 0.00 0.00 0.00 84 1012.3
20260831153053 53 0 0.0 0.9 0.00 0.00 0.00 88 1012.3
20260831151553 51 0 0.0 0.0 0.00 0.00 0.00 92 1012.3
20260831150106 49 0 0.0 0.0 0.00 0.00 0.00 94 1012.1
20260831144600 48 0 0.0 0.0 0.00 0.00 0.00 93 1012.1
20260831143054 48 0 0.0 0.0 0.00 0.00 0.00 92 1012.2
20260831141552 48 0 0.0 0.0 0.00 0.00 0.00 92 1012.2
20260831140100 47 0 0.0 0.0 0.00 0.00 0.00 92 1012.1
20260831134605 48 0 0.0 0.0 0.00 0.00 0.00 91 1012.0
20260831133056 48 0 0.0 0.0 0.00 0.00 0.00 91 1012.1
20260831131604 48 0 0.0 0.0 0.00 0.00 0.00 90 1012.0
20260831130106 48 0 0.0 0.0 0.00 0.00 0.00 90 1012.1
20260831124556 49 0 0.0 0.0 0.00 0.00 0.00 90 1012.2
20260831123054 49 0 0.0 0.0 0.00 0.00 0.00 90 1012.3
20260831121600 49 0 0.0 0.0 0.00 0.00 0.00 90 1012.5
20260831120059 49 0 0.0 0.0 0.00 0.00 0.00 90 1012.4
20260831114556 49 0 0.0 0.0 0.00 0.00 0.00 89 1012.4
20260831113056 49 0 0.0 0.0 0.00 0.00 0.00 89 1012.5
20260831111605 50 0 0.0 0.0 0.00 0.00 0.00 88 1012.6
20260831110055 50 0 0.0 0.0 0.00 0.00 0.00 88 1012.5
20260831104600 50 0 0.0 0.0 0.00 0.00 0.00 87 1012.6
20260831103057 51 0 0.0 0.0 0.00 0.00 0.00 86 1012.5
20260831101556 51 0 0.0 0.0 0.00 0.00 0.00 87 1012.8
20260831100116 51 0 0.0 0.0 0.00 0.00 0.00 86 1012.9
20260831094554 52 0 0.0 0.0 0.00 0.00 0.00 85 1013.0
20260831093057 52 0 0.0 0.0 0.00 0.00 0.00 84 1013.1
20260831091557 52 0 0.0 0.9 0.00 0.00 0.00 84 1013.3
20260831090114 53 0 0.0 0.0 0.00 0.00 0.00 83 1013.4
20260831084559 53 0 0.0 0.0 0.00 0.00 0.00 82 1013.5
20260831083109 53 0 0.0 0.0 0.00 0.00 0.00 82 1013.6
20260831081601 54 0 0.0 0.0 0.00 0.00 0.00 81 1013.7
20260831080124 54 0 0.0 0.0 0.00 0.00 0.00 81 1013.8
20260831074602 54 0 0.0 0.9 0.00 0.00 0.00 79 1013.9
20260831073103 55 0 0.0 1.7 0.00 0.00 0.00 79 1014.0
20260831071555 55 0 0.0 0.9 0.00 0.00 0.00 78 1014.2
20260831070051 55 0 0.0 1.7 0.00 0.00 0.00 78 1014.2
20260831064557 56 0 0.0 0.0 0.00 0.00 0.00 77 1014.3
20260831063108 56 0 0.0 0.0 0.00 0.00 0.00 76 1014.3
20260831061555 57 0 0.0 0.0 0.00 0.00 0.00 75 1014.2
20260831060053 57 0 0.0 0.0 0.00 0.00 0.00 73 1014.3